Weather History for Alpena, MI

Change the Weather History Date:

Tuesday, October 1, 2013

  Actual Average Record
Temperature  
Mean Temperature 60 °F 52 °F  
Max Temperature 77 °F 62 °F 88 °F (1971)
Min Temperature 42 °F 41 °F 23 °F (1960)
Degree Days  
Heating Degree Days 5 13  
Month to date heating degree days 5 13  
Since 1 July heating degree days 389 370  
Cooling Degree Days 0 0  
Month to date cooling degree days 0 0  
Year to date cooling degree days 343 289  
Growing Degree Days 10 (Base 50)    
Moisture  
Dew Point 50 °F    
Average Humidity 75    
Maximum Humidity 100    
Minimum Humidity 50    
Precipitation  
Precipitation 0.00 in 0.09 in 0.71 in (1988)
Month to date precipitation 0.00 0.09  
Year to date precipitation 23.66 21.79  
Sea Level Pressure  
Sea Level Pressure 29.87 in    
Wind  
Wind Speed 9 mph (SSW)    
Max Wind Speed 22 mph    
Max Gust Speed 31 mph    
Visibility 6 miles    
Events Fog    
T = Trace of Precipitation, MM = Missing Value Source: NWS Daily Summary

Daily Weather History Graph

Daily Weather History Graph

Search for Another Location

Airport:

Trip Planner

Search our weather history database for the weather conditions in past years. The results will help you decide how hot, cold, wet, or windy it might be!

Date:

Astronomy

Oct. 01, 2013 Rise Set
Actual Time 7:32 AM EDT 7:14 PM EDT
Civil Twilight 7:03 AM EDT 7:43 PM EDT
Nautical Twilight 6:29 AM EDT 8:17 PM EDT
Astronomical Twilight 5:54 AM EDT 8:52 PM EDT
Moon 3:58 AM EDT 5:23 PM EDT
Length of Visible Light 12h 40m
Length of Day
11h 41m
Waning Crescent, 12% of the Moon is Illuminated
Oct 1
Waning Crescent
Oct 4
New
Oct 11
First Quarter
Oct 18
Full
Oct 26
Last Quarter

Hourly Weather History & Observations

Time (EDT) Temp. Windchill Dew Point Humidity Pressure Visibility Wind Dir Wind Speed Gust Speed Precip Events Conditions
12:54 AM 48.9 °F - 48.0 °F 97% 29.93 in 10.0 mi South 6.9 mph - N/A   Clear
1:54 AM 51.1 °F - 50.0 °F 96% 29.92 in 10.0 mi South 4.6 mph - N/A   Clear
2:54 AM 50.0 °F - 48.9 °F 96% 29.92 in 10.0 mi SSE 4.6 mph - N/A   Clear
3:17 AM 48.2 °F - 48.2 °F 100% 29.92 in 1.0 mi Calm Calm - N/A   Mist
3:24 AM 48.2 °F - 48.2 °F 100% 29.92 in 0.8 mi Calm Calm - N/A   Mist
3:28 AM 48.2 °F - 48.2 °F 100% 29.91 in 2.5 mi Calm Calm - N/A   Clear
3:31 AM 48.2 °F - 48.2 °F 100% 29.91 in 5.0 mi Calm Calm - N/A   Partly Cloudy
3:39 AM 46.4 °F - 46.4 °F 100% 29.92 in 1.0 mi Calm Calm - N/A   Mist
3:42 AM 46.4 °F - 46.4 °F 100% 29.92 in 0.2 mi Calm Calm - N/A Fog Fog
3:54 AM 45.0 °F - 44.1 °F 97% 29.92 in 0.2 mi Calm Calm - N/A Fog Fog
4:03 AM 46.4 °F - 44.6 °F 93% 29.91 in 1.0 mi Calm Calm - N/A   Mist
4:06 AM 44.6 °F - 44.6 °F 100% 29.91 in 2.0 mi Calm Calm - N/A   Scattered Clouds
4:18 AM 42.8 °F - 42.8 °F 100% 29.91 in 1.0 mi Calm Calm - N/A   Mist
4:25 AM 44.6 °F - 44.6 °F 100% 29.91 in 0.5 mi Calm Calm - N/A Fog Fog
4:30 AM 44.6 °F - 44.6 °F 100% 29.91 in 3.0 mi Calm Calm - N/A   Partly Cloudy
4:34 AM 44.6 °F - 44.6 °F 100% 29.91 in 1.5 mi Calm Calm - N/A   Scattered Clouds
4:36 AM 44.6 °F - 44.6 °F 100% 29.91 in 0.8 mi Calm Calm - N/A   Mist
4:48 AM 42.8 °F - 42.8 °F 100% 29.90 in 1.2 mi Calm Calm - N/A   Scattered Clouds
4:51 AM 42.8 °F - 42.8 °F 100% 29.90 in 4.0 mi Calm Calm - N/A   Partly Cloudy
4:54 AM 42.1 °F - 42.1 °F 100% 29.91 in 8.0 mi Calm Calm - N/A   Partly Cloudy
5:07 AM 42.8 °F - 42.8 °F 100% 29.90 in 1.8 mi Calm Calm - N/A   Partly Cloudy
5:15 AM 42.8 °F - 41.0 °F 93% 29.90 in 3.0 mi Calm Calm - N/A   Partly Cloudy
5:24 AM 42.8 °F - 41.0 °F 93% 29.90 in 1.5 mi Calm Calm - N/A   Partly Cloudy
5:27 AM 42.8 °F - 42.8 °F 100% 29.90 in 0.8 mi Calm Calm - N/A   Mist
5:35 AM 42.8 °F - 42.8 °F 100% 29.90 in 0.2 mi Calm Calm - N/A Fog Fog
5:44 AM 42.8 °F 40.1 °F 41.0 °F 93% 29.90 in 1.0 mi SSW 4.6 mph - N/A   Clear
5:52 AM 42.8 °F 40.1 °F 41.0 °F 93% 29.90 in 10.0 mi SSW 4.6 mph - N/A   Clear
5:54 AM 42.1 °F 39.2 °F 42.1 °F 100% 29.91 in 10.0 mi SSW 4.6 mph - N/A   Clear
6:54 AM 52.0 °F - 48.9 °F 89% 29.89 in 10.0 mi SSW 5.8 mph - N/A   Clear
7:54 AM 50.0 °F - 46.9 °F 89% 29.89 in 10.0 mi SSW 5.8 mph - N/A   Clear
8:54 AM 57.0 °F - 51.1 °F 81% 29.89 in 10.0 mi SSW 8.1 mph - N/A   Clear
9:54 AM 61.0 °F - 54.0 °F 78% 29.89 in 10.0 mi SW 6.9 mph - N/A   Clear
10:54 AM 66.9 °F - 55.9 °F 68% 29.86 in 10.0 mi South 12.7 mph - N/A   Clear
11:54 AM 71.1 °F - 57.9 °F 63% 29.83 in 10.0 mi SSW 11.5 mph 26.5 mph N/A   Clear
12:54 PM 75.0 °F - 55.9 °F 51% 29.81 in 10.0 mi WSW 13.8 mph 24.2 mph N/A   Clear
1:54 PM 75.9 °F - 57.0 °F 52% 29.79 in 10.0 mi WSW 18.4 mph 24.2 mph N/A   Clear
2:54 PM 75.9 °F - 55.9 °F 50% 29.78 in 10.0 mi SW 17.3 mph 26.5 mph N/A   Clear
3:54 PM 75.9 °F - 55.9 °F 50% 29.75 in 10.0 mi SSW 17.3 mph 26.5 mph N/A   Clear
4:54 PM 75.9 °F - 55.9 °F 50% 29.75 in 10.0 mi SSW 20.7 mph 27.6 mph N/A   Clear
5:54 PM 73.9 °F - 57.0 °F 55% 29.77 in 10.0 mi SW 12.7 mph 20.7 mph N/A   Clear
6:54 PM 71.1 °F - 57.9 °F 63% 29.79 in 10.0 mi WSW 11.5 mph 20.7 mph N/A   Clear
7:54 PM 69.1 °F - 59.0 °F 70% 29.80 in 10.0 mi SW 11.5 mph 17.3 mph N/A   Clear
8:54 PM 66.9 °F - 59.0 °F 76% 29.82 in 10.0 mi WSW 8.1 mph - N/A   Clear
9:54 PM 66.0 °F - 59.0 °F 78% 29.82 in 10.0 mi SW 9.2 mph - N/A   Clear
10:54 PM 64.9 °F - 60.1 °F 84% 29.82 in 10.0 mi SW 9.2 mph - N/A   Clear
11:54 PM 64.9 °F - 60.1 °F 84% 29.83 in 10.0 mi WSW 8.1 mph - N/A   Clear